Hourly Weather Dziegietnia

Today, 6 May, Thursday

Time Temperature Precipitation Wind Pressure Humidity
00:00 +5°C° 0.2 mm 5 mps 735 mmHg 88%
01:00 +5°C° 0 mm 5 mps 736 mmHg 87%
02:00 +3°C° 0 mm 5 mps 736 mmHg 88%
03:00 +3°C° 0 mm 6 mps 736 mmHg 89%
04:00 +2°C° 0 mm 6 mps 737 mmHg 90%
05:00 +3°C° 0 mm 7 mps 737 mmHg 87%
06:00 +3°C° 0 mm 7 mps 738 mmHg 84%
07:00 +4°C° 0 mm 8 mps 739 mmHg 81%
08:00 +5°C° 0 mm 8 mps 739 mmHg 71%
09:00 +6°C° 0 mm 9 mps 739 mmHg 61%
10:00 +7°C° 0 mm 9 mps 739 mmHg 51%
11:00 +8°C° 0 mm 9 mps 739 mmHg 48%
12:00 +10°C° 0 mm 9 mps 740 mmHg 46%
13:00 +10°C° 0 mm 9 mps 740 mmHg 43%
14:00 +10°C° 0 mm 8 mps 740 mmHg 45%
15:00 +11°C° 0 mm 6 mps 739 mmHg 48%
16:00 +12°C° 0 mm 5 mps 739 mmHg 50%
17:00 +9°C° 0.1 mm 5 mps 739 mmHg 59%
18:00 +8°C° 0.1 mm 5 mps 739 mmHg 68%
19:00 +6°C° 0.1 mm 4 mps 739 mmHg 76%
20:00 +5°C° 0.1 mm 4 mps 739 mmHg 82%
21:00 +5°C° 0.1 mm 4 mps 739 mmHg 87%
22:00 +4°C° 0.1 mm 4 mps 739 mmHg 92%
23:00 +4°C° 0 mm 4 mps 739 mmHg 92%

Tomorrow, 7 May, Friday

Time Temperature Precipitation Wind Pressure Humidity
00:00 +3°C° 0 mm 3 mps 739 mmHg 93%
01:00 +3°C° 0 mm 3 mps 739 mmHg 93%
02:00 +3°C° 0.1 mm 3 mps 739 mmHg 94%
03:00 +5°C° 0.1 mm 2 mps 739 mmHg 94%
04:00 +5°C° 0.1 mm 2 mps 738 mmHg 94%
05:00 +5°C° 0.5 mm 2 mps 738 mmHg 94%
06:00 +5°C° 0.5 mm 3 mps 738 mmHg 95%
07:00 +5°C° 0.5 mm 3 mps 738 mmHg 95%
08:00 +7°C° 0.5 mm 3 mps 737 mmHg 94%
09:00 +7°C° 0.5 mm 3 mps 737 mmHg 93%
10:00 +7°C° 0.5 mm 3 mps 736 mmHg 92%
11:00 +7°C° 0.3 mm 4 mps 736 mmHg 91%
12:00 +7°C° 0.3 mm 4 mps 736 mmHg 91%
13:00 +7°C° 0.3 mm 4 mps 736 mmHg 90%
14:00 +7°C° 0.3 mm 5 mps 736 mmHg 90%
15:00 +7°C° 0.3 mm 5 mps 736 mmHg 89%
16:00 +7°C° 0.3 mm 6 mps 736 mmHg 88%
17:00 +5°C° 0.1 mm 6 mps 736 mmHg 90%
18:00 +4°C° 0.1 mm 6 mps 736 mmHg 91%
19:00 +3°C° 0.1 mm 7 mps 737 mmHg 93%
20:00 +2°C° 0.6 mm 6 mps 738 mmHg 94%
21:00 +2°C° 0.6 mm 6 mps 739 mmHg 95%
22:00 +1°C° 0.6 mm 6 mps 740 mmHg 96%
23:00 +1°C° 0.3 mm 6 mps 740 mmHg 96%

Day after tomorrow, 8 May, Saturday

Time Temperature Precipitation Wind Pressure Humidity
00:00 +2°C° 0.3 mm 6 mps 741 mmHg 95%
01:00 +2°C° 0.3 mm 7 mps 741 mmHg 94%
02:00 +2°C° 0 mm 6 mps 742 mmHg 94%
03:00 +1°C° 0 mm 6 mps 742 mmHg 93%
04:00 +1°C° 0 mm 6 mps 743 mmHg 93%
05:00 +1°C° 0.1 mm 6 mps 743 mmHg 93%
06:00 +1°C° 0.1 mm 6 mps 744 mmHg 93%
07:00 +2°C° 0.1 mm 6 mps 744 mmHg 93%
08:00 +3°C° 0 mm 6 mps 745 mmHg 85%
09:00 +4°C° 0 mm 6 mps 745 mmHg 77%
10:00 +5°C° 0 mm 6 mps 746 mmHg 69%
11:00 +7°C° 0.1 mm 6 mps 746 mmHg 67%
12:00 +7°C° 0.1 mm 6 mps 746 mmHg 66%
13:00 +8°C° 0.1 mm 6 mps 746 mmHg 64%
14:00 +8°C° 0.3 mm 6 mps 746 mmHg 62%
15:00 +9°C° 0.3 mm 6 mps 746 mmHg 61%
16:00 +9°C° 0.3 mm 5 mps 746 mmHg 59%
17:00 +8°C° 0.1 mm 5 mps 747 mmHg 67%
18:00 +6°C° 0.1 mm 4 mps 747 mmHg 75%
19:00 +4°C° 0.1 mm 4 mps 747 mmHg 83%
20:00 +4°C° 0 mm 3 mps 748 mmHg 86%
21:00 +3°C° 0 mm 3 mps 748 mmHg 88%
22:00 +3°C° 0 mm 2 mps 748 mmHg 91%
23:00 +3°C° 0 mm 2 mps 749 mmHg 91%

9 May, Sunday

Time Temperature Precipitation Wind Pressure Humidity
00:00 +2°C° 0 mm 2 mps 749 mmHg 90%
01:00 +2°C° 0 mm 2 mps 749 mmHg 90%
02:00 +2°C° 0 mm 2 mps 749 mmHg 90%
03:00 +2°C° 0 mm 2 mps 749 mmHg 90%
04:00 +2°C° 0 mm 2 mps 749 mmHg 89%
05:00 +3°C° 0 mm 3 mps 750 mmHg 84%
06:00 +5°C° 0 mm 3 mps 750 mmHg 78%
07:00 +8°C° 0 mm 3 mps 750 mmHg 72%
08:00 +8°C° 0 mm 4 mps 750 mmHg 66%
09:00 +11°C° 0 mm 4 mps 750 mmHg 61%
10:00 +12°C° 0 mm 5 mps 750 mmHg 55%
11:00 +13°C° 0 mm 5 mps 749 mmHg 54%
12:00 +14°C° 0 mm 5 mps 749 mmHg 52%
13:00 +15°C° 0 mm 6 mps 749 mmHg 50%
14:00 +15°C° 0 mm 5 mps 749 mmHg 53%
15:00 +15°C° 0 mm 5 mps 748 mmHg 56%
16:00 +16°C° 0 mm 5 mps 748 mmHg 58%
17:00 +14°C° 0 mm 4 mps 748 mmHg 64%
18:00 +12°C° 0 mm 4 mps 748 mmHg 70%
19:00 +11°C° 0 mm 4 mps 748 mmHg 77%
20:00 +10°C° 0 mm 4 mps 748 mmHg 77%
21:00 +10°C° 0 mm 4 mps 748 mmHg 78%
22:00 +8°C° 0 mm 5 mps 748 mmHg 79%
23:00 +8°C° 0 mm 5 mps 748 mmHg 79%

10 May, Monday

Time Temperature Precipitation Wind Pressure Humidity
00:00 +7°C° 0 mm 5 mps 748 mmHg 80%
01:00 +7°C° 0 mm 5 mps 748 mmHg 81%
02:00 +7°C° 0 mm 5 mps 748 mmHg 81%
03:00 +6°C° 0 mm 5 mps 748 mmHg 81%
04:00 +6°C° 0 mm 5 mps 748 mmHg 81%
05:00 +8°C° 0 mm 5 mps 748 mmHg 77%
06:00 +9°C° 0 mm 6 mps 748 mmHg 74%
07:00 +11°C° 0 mm 6 mps 748 mmHg 70%
08:00 +14°C° 0 mm 6 mps 748 mmHg 65%
09:00 +15°C° 0 mm 7 mps 748 mmHg 60%
10:00 +17°C° 0 mm 8 mps 748 mmHg 55%
11:00 +18°C° 0 mm 7 mps 747 mmHg 55%
12:00 +20°C° 0 mm 7 mps 747 mmHg 54%
13:00 +21°C° 0 mm 7 mps 747 mmHg 53%
14:00 +21°C° 0 mm 7 mps 747 mmHg 56%
15:00 +20°C° 0 mm 7 mps 747 mmHg 59%
16:00 +20°C° 0 mm 7 mps 746 mmHg 61%
17:00 +19°C° 0 mm 6 mps 746 mmHg 66%
18:00 +16°C° 0 mm 5 mps 747 mmHg 72%
19:00 +14°C° 0 mm 4 mps 747 mmHg 77%
20:00 +14°C° 0 mm 5 mps 746 mmHg 77%
21:00 +13°C° 0 mm 5 mps 746 mmHg 78%
22:00 +13°C° 0 mm 6 mps 746 mmHg 78%
23:00 +11°C° 0 mm 6 mps 746 mmHg 79%

11 May, Tuesday

Time Temperature Precipitation Wind Pressure Humidity
00:00 +11°C° 0 mm 6 mps 746 mmHg 81%
01:00 +10°C° 0 mm 6 mps 746 mmHg 82%
02:00 +10°C° 0 mm 6 mps 745 mmHg 81%
03:00 +9°C° 0 mm 7 mps 745 mmHg 80%
04:00 +9°C° 0 mm 7 mps 745 mmHg 78%
05:00 +10°C° 0 mm 7 mps 745 mmHg 77%
06:00 +11°C° 0 mm 8 mps 745 mmHg 75%
07:00 +12°C° 0 mm 8 mps 745 mmHg 73%
08:00 +15°C° 0 mm 8 mps 745 mmHg 70%
09:00 +16°C° 0 mm 9 mps 745 mmHg 66%
10:00 +18°C° 0 mm 9 mps 744 mmHg 63%
11:00 +19°C° 0 mm 9 mps 744 mmHg 62%
12:00 +21°C° 0 mm 9 mps 744 mmHg 61%
13:00 +22°C° 0 mm 8 mps 744 mmHg 60%
14:00 +22°C° 0 mm 8 mps 744 mmHg 62%
15:00 +21°C° 0 mm 8 mps 744 mmHg 63%
16:00 +21°C° 0 mm 8 mps 744 mmHg 65%
17:00 +20°C° 0 mm 8 mps 743 mmHg 66%
18:00 +18°C° 0 mm 8 mps 743 mmHg 68%
19:00 +16°C° 0 mm 7 mps 743 mmHg 70%
20:00 +16°C° 0 mm 7 mps 743 mmHg 68%
21:00 +15°C° 0 mm 7 mps 743 mmHg 66%
22:00 +15°C° 0 mm 8 mps 744 mmHg 64%
23:00 +13°C° 0 mm 8 mps 743 mmHg 66%
Show more

We Need Your Consent

Meteoprog and our Service Providers may store and access personal data such as cookies, device identifiers or other similar technologies on your device and process such data to personalise content and ads, as well as provide social media features and to analyse the traffic.

  • Store and/or access information on your device

    Cookies, device identifiers or other information can be stored or accessed on your device for the purposes indicated above.

  • Personalised ads and content, ad and content measurement, audience insights, and products development

    Ads and content can be personalised based on a profile. More data can be added to better personalise ads and content. Ad and content performance can be measured. Insights about the audience who saw the ads and content can be derived. Such data can be used to develop or improve user’s experience, systems and software.

By clicking ‘I Agree’ you will allow the use of indicated cookies, device identifiers, web beacons or other similar technologies. Your settings can be changed in the browser on your device.

For certain purposes, legitimate interests may be relied on, rather than consent. You can read more about this in our Privacy and Cookie Policy.